Flag for China Weather past 2 weeks in Lanzhou, Gansu, China

Now
45 °F

Fog.


Feels Like: 43 °F
Forecast: 46 / 63 °F
Wind: 3 mph from Southwest

Location: Lanzhou / Zhongchuan

Current Time: Sep 23, 2014 at 4:19:19 AM

Latest Report: Sep 23, 2014 at 4:00 AM


Visibility: 1 mi

Pressure: 30.24 "Hg

Humidity: 100%

Dew point: 45 °F

Location of LanzhouLocation

Historic Weather in Lanzhou — Graph

°F

Lanzhou temperature yesterday

Maximum temperature yesterday: 50 °F (at 12:00 AM)
Minimum temperature yesterday: 45 °F (at 10:00 AM)
Average temperature yesterday: 47 °F

Past Weeks' High & Low Weather Summary

 TemperatureHumidityPressure
High77 °F (Sep 9, 3:00 PM)100% (Sep 9, 6:00 AM)30.30 "Hg (Sep 9, 6:00 AM)
Low45 °F (Sep 19, 7:00 AM)28% (Sep 9, 5:00 PM)29.95 "Hg (Sep 10, 4:00 PM)
Average57 °F77%30.12 "Hg
* Reported Sep 8 3:00 AM — Sep 23 3:00 AM, Lanzhou, Weather by CustomWeather, © 2014

Note: Actual official high and low records may vary slightly from our data, if they occured in-between our weather recording intervals... More about our weather records

Advertising

Lanzhou weather history for previous 24 hours

 ConditionsComfort  
Time TempWeatherWind HumidityBarometerVisibility
3:00 AM
Sep 23
46 °FLight rain. Fog.1 mph93%30.24 "Hg2 mi
2:00 AM45 °FLight rain. Fog.1 mph100%30.24 "Hg2 mi
1:00 AM46 °FFog.1 mph93%30.27 "Hg3 mi
12:00 AM46 °FLight rain. Fog.1 mph93%30.27 "Hg3 mi
11:00 PM
Sep 22
46 °FLight rain. Fog.3 mph93%30.30 "Hg3 mi
10:00 PM46 °FLight rain. Fog.1 mph93%30.27 "Hg2 mi
9:00 PM46 °FLight rain. Fog.3 mph93%30.27 "Hg2 mi
8:00 PM46 °FLight rain. Fog.3 mph93%30.24 "Hg2 mi
7:00 PM46 °FLight rain. Fog.3 mph93%30.24 "Hg2 mi
6:00 PM46 °FLight rain. Fog.3 mph93%30.21 "Hg2 mi
5:00 PM46 °FLight rain. Fog.3 mph93%30.21 "Hg2 mi
4:00 PM46 °FLight rain. Fog.3 mph93%30.21 "Hg2 mi
3:00 PM46 °FLight rain. Fog.6 mph93%30.21 "Hg3 mi
2:00 PM46 °FLight rain. More clouds than sun.6 mph93%30.21 "Hg4 mi
1:00 PM46 °FLight rain. More clouds than sun.6 mph93%30.21 "Hg5 mi
12:00 PM46 °FLight rain. More clouds than sun.3 mph93%30.21 "HgN/A
11:00 AM46 °FLight rain. More clouds than sun.3 mph87%30.24 "HgN/A
10:00 AM45 °FLight rain. Overcast.6 mph93%30.21 "Hg5 mi
9:00 AM46 °FLight rain. Overcast.3 mph93%30.21 "Hg4 mi
8:00 AM48 °FLight rain. Overcast.1 mph71%30.18 "HgN/A
7:00 AM48 °FOvercast.6 mph66%30.18 "HgN/A
6:00 AM48 °FOvercast.6 mph71%30.15 "HgN/A
5:00 AM50 °FOvercast.1 mph88%30.15 "HgN/A
4:00 AM50 °FOvercast.No wind94%30.15 "HgN/A
Weather by CustomWeather, © 2014

See weather overviewHow to use our weather pages